Weather History for Fort Sevcenko, Kazakhstan

Change the Weather History Date:

Friday, January 18, 2013

  Actual Average Record
Temperature  
Mean Temperature 29 °F -  
Max Temperature 34 °F - - ()
Min Temperature 23 °F - - ()
Degree Days  
Heating Degree Days 36    
Moisture  
Dew Point 24 °F    
Average Humidity 76    
Maximum Humidity 100    
Minimum Humidity 47    
Precipitation  
Precipitation 0.00 in 0.01 in - ()
Sea Level Pressure  
Sea Level Pressure 29.94 in    
Wind  
Wind Speed 12 mph ()    
Max Wind Speed 20 mph    
Max Gust Speed -    
Visibility 5.7 miles    
Events      
T = Trace of Precipitation, MM = Missing Value Source: Averaged Metar Reports

Daily Weather History Graph

Daily Weather History Graph

Search for Another Location

Airport:

Trip Planner

Search our weather history database for the weather conditions in past years. The results will help you decide how hot, cold, wet, or windy it might be!

Date:

Astronomy

Jan. 18, 2013 Rise Set
Actual Time 9:05 AM AQTT 6:27 PM AQTT
Civil Twilight 8:33 AM AQTT 6:59 PM AQTT
Nautical Twilight 7:57 AM AQTT 7:34 PM AQTT
Astronomical Twilight 7:23 AM AQTT 8:09 PM AQTT
Moon 12:14 PM AQTT (1/18) 1:09 AM AQTT (1/18)
Length of Visible Light 10h 25m
Length of Day
9h 22m
Waxing Crescent, 43% of the Moon is Illuminated
Jan 18
Waxing Crescent
Jan 19
First Quarter
Jan 27
Full
Feb 3
Last Quarter
Feb 10
New

Hourly Weather History & Observations

Time (AQTT) Temp. Windchill Dew Point Humidity Pressure Visibility Wind Dir Wind Speed Gust Speed Precip Events Conditions
12:00 AM 33.8 °F 23.0 °F 26.6 °F 75% 29.89 in - East 17.9 mph - N/A   Clear
12:30 AM 33.8 °F 23.0 °F 24.8 °F 70% 29.89 in - ESE 17.9 mph - N/A   Clear
1:00 AM 32.0 °F 20.0 °F 24.8 °F 75% 29.89 in - East 20.1 mph - N/A   Clear
1:30 AM 32.0 °F 21.4 °F 24.8 °F 75% 29.89 in - ESE 15.7 mph - N/A   Clear
2:00 AM 36 °F - 24 °F 48% 29.89 in 6 mi SE 15.7 mph - -   Partly Cloudy
2:00 AM 32.0 °F 21.4 °F 24.8 °F 75% 29.89 in - East 15.7 mph - N/A   Clear
2:30 AM 32.0 °F 22.2 °F 26.6 °F 80% 29.89 in - East 13.4 mph - N/A   Clear
3:00 AM 32.0 °F 20.6 °F 24.8 °F 75% 29.89 in - East 17.9 mph - N/A   Clear
3:30 AM 30.2 °F 19.9 °F 24.8 °F 80% 29.89 in - East 13.4 mph - N/A   Clear
4:00 AM 30.2 °F 19.9 °F 24.8 °F 80% 29.89 in - East 13.4 mph - N/A   Clear
4:30 AM 30.2 °F 19.1 °F 24.8 °F 80% 29.89 in - ENE 15.7 mph - N/A   Clear
5:00 AM 35 °F - 22 °F 47% 29.89 in 6 mi SE 15.7 mph - -   Partly Cloudy
5:00 AM 28.4 °F 16.7 °F 24.8 °F 86% 29.89 in - ENE 15.7 mph - N/A   Clear
5:30 AM 28.4 °F 16.7 °F 23.0 °F 80% 29.89 in - ENE 15.7 mph - N/A   Clear
6:00 AM 28.4 °F 17.6 °F 23.0 °F 80% 29.89 in - ENE 13.4 mph - N/A   Clear
6:30 AM 28.4 °F 17.6 °F 23.0 °F 80% 29.89 in - ENE 13.4 mph - N/A   Clear
7:00 AM 28.4 °F 18.7 °F 23.0 °F 80% 29.89 in - NE 11.2 mph - N/A   Clear
7:30 AM 26.6 °F 15.3 °F 23.0 °F 86% 29.89 in - NE 13.4 mph - N/A   Clear
8:00 AM 32 °F - 23 °F 60% 29.92 in 6 mi NNE 6.7 mph - -   Mostly Cloudy
8:00 AM 26.6 °F 15.3 °F 23.0 °F 86% 29.89 in - NNE 13.4 mph - N/A   Clear
8:30 AM 26.6 °F 16.4 °F 23.0 °F 86% 29.89 in - NE 11.2 mph - N/A   Clear
9:00 AM 26.6 °F 17.7 °F 23.0 °F 86% 29.92 in - NNE 8.9 mph - N/A   Clear
9:30 AM 26.6 °F 16.4 °F 23.0 °F 86% 29.92 in - NNE 11.2 mph - N/A   Clear
10:00 AM 28.4 °F 18.7 °F 23.0 °F 80% 29.92 in - NNE 11.2 mph - N/A   Clear
10:30 AM 28.4 °F 18.7 °F 23.0 °F 80% 29.92 in - NE 11.2 mph - N/A   Clear
11:00 AM 31 °F - 25 °F 71% 29.95 in 6 mi North 2.2 mph - -   Clear
11:00 AM 30.2 °F 20.9 °F 24.8 °F 80% 29.92 in - NE 11.2 mph - N/A   Clear
11:30 AM 32.0 °F 24.3 °F 24.8 °F 75% 29.92 in - ENE 8.9 mph - N/A   Clear
12:00 PM 33.8 °F 26.5 °F 24.8 °F 70% 29.92 in - NE 8.9 mph - N/A   Clear
12:30 PM 35.6 °F 30.0 °F 24.8 °F 65% 29.95 in - NNE 6.7 mph - N/A   Clear
1:00 PM 37.4 °F 33.9 °F 24.8 °F 60% 29.95 in - North 4.5 mph - N/A   Clear
1:30 PM 37.4 °F 29.9 °F 26.6 °F 65% 29.92 in - NW 11.2 mph - N/A   Clear
2:00 PM 28 °F - 22 °F 72% 29.98 in 6 mi North 8.9 mph - -   Clear
2:00 PM 37.4 °F 29.9 °F 26.6 °F 65% 29.92 in - NW 11.2 mph - N/A   Clear
2:30 PM 37.4 °F 29.9 °F 26.6 °F 65% 29.92 in - NW 11.2 mph - N/A   Clear
3:00 PM 39.2 °F 32.2 °F 24.8 °F 56% 29.92 in - NNW 11.2 mph - N/A   Clear
3:30 PM 37.4 °F 29.1 °F 26.6 °F 65% 29.92 in - NNW 13.4 mph - N/A   Clear
4:00 PM 37.4 °F 29.1 °F 24.8 °F 60% 29.92 in - North 13.4 mph - N/A   Clear
4:30 PM 35.6 °F 26.8 °F 26.6 °F 70% 29.92 in - North 13.4 mph - N/A   Clear
5:00 PM 29 °F - 24 °F 73% 29.99 in 6 mi North 20.1 mph - -   Overcast
5:00 PM 35.6 °F 27.7 °F 24.8 °F 65% 29.95 in - North 11.2 mph - N/A   Clear
5:30 PM 33.8 °F 23.7 °F 24.8 °F 70% 29.95 in - NNE 15.7 mph - N/A   Clear
6:00 PM 32.0 °F 23.2 °F 24.8 °F 75% 29.98 in - North 11.2 mph - N/A   Clear
6:30 PM 30.2 °F 22.1 °F 24.8 °F 80% 29.98 in - NNW 8.9 mph - N/A   Clear
7:00 PM 30.2 °F 22.1 °F 24.8 °F 80% 29.98 in - North 8.9 mph - N/A   Clear
7:30 PM 28.4 °F 19.9 °F 24.8 °F 86% 30.01 in - North 8.9 mph - N/A   Clear
8:00 PM 28 °F - 23 °F 76% 30.02 in 6 mi North 6.7 mph - -   Clear
8:00 PM 28.4 °F 19.9 °F 24.8 °F 86% 30.01 in - NNW 8.9 mph - N/A   Clear
8:30 PM 28.4 °F 19.9 °F 24.8 °F 86% 30.01 in - North 8.9 mph - N/A   Clear
9:00 PM 26.6 °F 17.7 °F 24.8 °F 93% 30.04 in - North 8.9 mph - N/A   Clear
9:30 PM 26.6 °F 17.7 °F 24.8 °F 93% 30.04 in - North 8.9 mph - N/A   Clear
10:00 PM 24.8 °F 17.1 °F 23.0 °F 93% 30.04 in - NW 6.7 mph - N/A   Clear
10:30 PM 24.8 °F 17.1 °F 23.0 °F 93% 30.04 in - North 6.7 mph - N/A   Clear
11:00 PM 27 °F - 22 °F 74% 30.04 in 6 mi East 2.2 mph - -   Clear
11:00 PM 24.8 °F 17.1 °F 23.0 °F 93% 30.04 in - NNE 6.7 mph - N/A   Clear
11:30 PM 23.0 °F 14.9 °F 23.0 °F 100% 30.04 in 3.1 mi North 6.7 mph - N/A   Scattered Clouds